Regional Weather Roundup
Issued by NWS Goodland, KS

Home | Current Version | Previous Version | Text Only | Print | Product List | Glossary On
Versions: 1 2 3 4 5 6 7 8 9 10 11 12 13 14 15 16 17 18 19 20 21 22 23 24 25 26 27 28 29 30 31 32 33 34 35 36 37 38 39 40 41 42 43 44 45 46 47 48 49 50
000
ASUS43 KGLD 271208
RWRGLD

GOODLAND FORECAST AREA HOURLY WEATHER ROUNDUP
NATIONAL WEATHER SERVICE GOODLAND KS
500 AM MST FRI FEB 27 2015

...OFFICIAL OBSERVATIONS...

CITY           SKY/WX    TMP DP  RH WIND       PRES   REMARKS
GOODLAND KS    LGT SNOW  10   7  87 SE13      30.27S FOG     WCI  -5
HILL CITY KS   CLOUDY     8  -1  66 E6        30.47F
IMPERIAL NEB   MOCLDY     5  -3  69 SE12      30.33S WCI -11
MCCOOK NEB     CLOUDY     9  -2  61 SE10      30.42S WCI  -5
AKRON CO       CLOUDY     7   5  91 SE14      30.12F WCI -10
BURLINGTON CO  LGT SNOW  11   6  81 SE16      30.20S WCI  -6
LIMON CO       CLOUDY     5   3  91 SE14      30.07S FOG     WCI -12
$$

...UNOFFICIAL OBSERVATIONS...

CITY           SKY/WX    TMP DP  RH WIND       PRES   REMARKS
COLBY KS       CLOUDY    12   7  79 SE12      30.35S WCI  -2
GOVE KS          N/A     10  32 100 MISG        N/A
LENORA KS        N/A      6  32 100 S10         N/A  WCI  -9
NORTON KS      PTCLDY     9   0  66 E5        30.45S
SHARON SPRINGS   N/A     12   9  87 SE12        N/A  WCI  -2
KIT CARSON CO    N/A     11   8  86 MISG        N/A
YUMA CO          N/A      9   4  81 E8          N/A
$$


USA.gov is the U.S. government's official web portal to all federal, state and local government web resources and services.